Location: Prague
(50.0830°N, 14.4670°E)
Time: 17:48:30
(UTC+02:00)

STARLINK-1723 - Pass Details

Date: 22 September 2020
Orbit: 549 x 550 km, 53.0° (Epoch: 24 October)

Event Time Altitude Azimuth Distance (km) Brightness Sun altitude
Exits shadow 02:39:46 10° 71° (ENE) 1,824 6.8 -35.0°
Drops below altitude 10° 02:39:49 10° 71° (ENE) 1,844 6.8 -34.9°
Enters shadow 03:41:02 -61° 254° (WSW) 11,752 10.4 -28.5°
